EJA989 KTPA-KCLT

Flight info

Callsign EJA989
Flight time 1h 19m
Altitude 45000
Route BAYPO2 CAMJO TWINS PONZE BANKR5
Aircraft PC24/M-SBDGIRWY/LB2

Departure

Time 2026-05-07 21:46
Airport Tampa International Airport (KTPA)

Arrival

Time 2026-05-07 23:06
Airport Charlotte Douglas International Airport (KCLT)
Time Latitude Longitude Altitude Speed Heading
2026-05-07 21:22 27.96780 -82.52067 38 ft 0 kts 90°
2026-05-07 21:31 27.96780 -82.52081 38 ft 2 kts 87°
2026-05-07 21:31 27.96779 -82.52100 38 ft 2 kts 86°
2026-05-07 21:31 27.96778 -82.52118 38 ft 2 kts 87°
2026-05-07 21:31 27.96777 -82.52136 38 ft 2 kts 87°
2026-05-07 21:32 27.96777 -82.52155 38 ft 2 kts 87°
2026-05-07 21:32 27.96776 -82.52174 38 ft 2 kts 87°
2026-05-07 21:32 27.96776 -82.52173 38 ft 2 kts 73°
2026-05-07 21:32 27.96791 -82.52172 38 ft 2 kts 344°
2026-05-07 21:33 27.96797 -82.52182 38 ft 0 kts 278°
2026-05-07 21:39 27.96803 -82.52207 38 ft 9 kts 289°
2026-05-07 21:39 27.96841 -82.52324 38 ft 23 kts 296°
2026-05-07 21:40 27.96898 -82.52372 38 ft 7 kts 346°
2026-05-07 21:40 27.96937 -82.52428 38 ft 11 kts 274°
2026-05-07 21:40 27.96940 -82.52524 38 ft 14 kts 271°
2026-05-07 21:40 27.96943 -82.52633 38 ft 14 kts 277°
2026-05-07 21:41 27.97020 -82.52673 36 ft 14 kts
2026-05-07 21:41 27.97127 -82.52670 36 ft 18 kts
2026-05-07 21:41 27.97249 -82.52665 38 ft 17 kts
2026-05-07 21:41 27.97366 -82.52679 38 ft 16 kts 353°
2026-05-07 21:42 27.97474 -82.52692 38 ft 15 kts 354°
2026-05-07 21:42 27.97579 -82.52697 37 ft 16 kts
2026-05-07 21:42 27.97685 -82.52693 37 ft 15 kts
2026-05-07 21:42 27.97786 -82.52689 38 ft 14 kts
2026-05-07 21:43 27.97882 -82.52687 38 ft 13 kts
2026-05-07 21:43 27.97984 -82.52684 38 ft 18 kts
2026-05-07 21:43 27.98126 -82.52680 38 ft 21 kts
2026-05-07 21:43 27.98262 -82.52672 38 ft 19 kts
2026-05-07 21:44 27.98386 -82.52667 38 ft 17 kts
2026-05-07 21:44 27.98502 -82.52667 38 ft 16 kts 360°
2026-05-07 21:44 27.98607 -82.52660 38 ft 14 kts 360°
2026-05-07 21:44 27.98684 -82.52720 37 ft 14 kts 311°
2026-05-07 21:45 27.98695 -82.52815 33 ft 14 kts 219°
2026-05-07 21:45 27.98619 -82.52820 33 ft 9 kts 201°
2026-05-07 21:45 27.98563 -82.52827 33 ft 9 kts 181°
2026-05-07 21:45 27.98451 -82.52832 33 ft 37 kts 182°
2026-05-07 21:46 27.97930 -82.52861 35 ft 111 kts 185°
2026-05-07 21:46 27.96950 -82.52878 113 ft 168 kts 182°
2026-05-07 21:46 27.95774 -82.52951 1120 ft 155 kts 197°
2026-05-07 21:46 27.94817 -82.53398 2240 ft 146 kts 211°
2026-05-07 21:47 27.93896 -82.53860 3155 ft 157 kts 208°
2026-05-07 21:47 27.92827 -82.54385 3698 ft 184 kts 207°
2026-05-07 21:47 27.92011 -82.54816 3963 ft 206 kts 208°
2026-05-07 21:47 27.90653 -82.55495 4815 ft 214 kts 210°
2026-05-07 21:48 27.89335 -82.56311 5762 ft 217 kts 220°
2026-05-07 21:48 27.88560 -82.57822 6207 ft 242 kts 261°
2026-05-07 21:48 27.88693 -82.59858 6257 ft 281 kts 294°
2026-05-07 21:48 27.89938 -82.61438 7505 ft 264 kts 328°
2026-05-07 21:49 27.91670 -82.62076 8699 ft 260 kts 354°
2026-05-07 21:49 27.93346 -82.61668 10195 ft 243 kts 15°
2026-05-07 21:49 27.94820 -82.61138 11782 ft 183 kts
2026-05-07 21:49 27.95872 -82.60933 13268 ft 146 kts 359°
2026-05-07 21:50 27.97059 -82.60800 13126 ft 197 kts
2026-05-07 21:50 27.98474 -82.60603 13530 ft 213 kts
2026-05-07 21:50 28.00020 -82.60384 13826 ft 235 kts
2026-05-07 21:50 28.01722 -82.60146 14042 ft 258 kts
2026-05-07 21:51 28.03593 -82.59884 14177 ft 283 kts
2026-05-07 21:51 28.05633 -82.59597 14240 ft 309 kts
2026-05-07 21:51 28.07849 -82.59283 14285 ft 332 kts
2026-05-07 21:51 28.10213 -82.58948 14323 ft 352 kts
2026-05-07 21:52 28.12694 -82.58596 14348 ft 365 kts
2026-05-07 21:52 28.15232 -82.58237 14365 ft 369 kts
2026-05-07 21:52 28.17759 -82.57884 14396 ft 370 kts
2026-05-07 21:52 28.20317 -82.57605 14664 ft 359 kts 356°
2026-05-07 21:53 28.22757 -82.57717 15220 ft 355 kts 353°
2026-05-07 21:53 28.25236 -82.57771 15707 ft 358 kts 355°
2026-05-07 21:53 28.27730 -82.57810 16208 ft 359 kts 354°
2026-05-07 21:53 28.30228 -82.57890 16705 ft 360 kts 353°
2026-05-07 21:54 28.32742 -82.57977 17181 ft 362 kts 353°
2026-05-07 21:54 28.35268 -82.58049 17661 ft 364 kts 353°
2026-05-07 21:54 28.37809 -82.58118 18142 ft 366 kts 353°
2026-05-07 21:54 28.40360 -82.58180 18557 ft 368 kts 353°
2026-05-07 21:55 28.42927 -82.58241 18931 ft 370 kts 353°
2026-05-07 21:55 28.45509 -82.58306 19306 ft 372 kts 353°
2026-05-07 21:55 28.48111 -82.58374 19631 ft 376 kts 353°
2026-05-07 21:55 28.50740 -82.58439 19983 ft 379 kts 353°
2026-05-07 21:56 28.53380 -82.58504 20350 ft 380 kts 352°
2026-05-07 21:56 28.56032 -82.58572 20694 ft 383 kts 352°
2026-05-07 21:56 28.58702 -82.58638 21030 ft 384 kts 352°
2026-05-07 21:56 28.61382 -82.58707 21346 ft 387 kts 352°
2026-05-07 21:57 28.64079 -82.58773 21677 ft 388 kts 352°
2026-05-07 21:57 28.66785 -82.58850 21980 ft 389 kts 351°
2026-05-07 21:57 28.69463 -82.59198 22233 ft 387 kts 345°
2026-05-07 21:57 28.72140 -82.59581 22543 ft 389 kts 347°
2026-05-07 21:58 28.74841 -82.59932 22840 ft 391 kts 346°
2026-05-07 21:58 28.77548 -82.60304 23127 ft 393 kts 346°
2026-05-07 21:58 28.80268 -82.60694 23404 ft 395 kts 346°
2026-05-07 21:58 28.83000 -82.61078 23665 ft 397 kts 346°
2026-05-07 21:59 28.85744 -82.61457 23879 ft 398 kts 346°
2026-05-07 21:59 28.88497 -82.61840 24090 ft 399 kts 346°
2026-05-07 21:59 28.91257 -82.62226 24297 ft 401 kts 346°
2026-05-07 21:59 28.94031 -82.62616 24501 ft 402 kts 346°
2026-05-07 22:00 28.96810 -82.63003 24696 ft 403 kts 346°
2026-05-07 22:00 28.99599 -82.63393 24906 ft 404 kts 346°
2026-05-07 22:00 29.02358 -82.63780 25104 ft 406 kts 346°
2026-05-07 22:00 29.05166 -82.64172 25318 ft 407 kts 345°
2026-05-07 22:01 29.07978 -82.64566 25540 ft 407 kts 345°
2026-05-07 22:01 29.10795 -82.64963 25723 ft 409 kts 345°
2026-05-07 22:01 29.13623 -82.65359 25909 ft 410 kts 345°
2026-05-07 22:01 29.16457 -82.65757 26099 ft 411 kts 345°
2026-05-07 22:02 29.19301 -82.66156 26282 ft 412 kts 345°
2026-05-07 22:02 29.22150 -82.66557 26462 ft 414 kts 345°
2026-05-07 22:02 29.25012 -82.66959 26648 ft 415 kts 345°
2026-05-07 22:02 29.27879 -82.67363 26828 ft 416 kts 345°
2026-05-07 22:03 29.30756 -82.67768 27002 ft 417 kts 345°
2026-05-07 22:03 29.33643 -82.68174 27183 ft 418 kts 345°
2026-05-07 22:03 29.36529 -82.68580 27443 ft 418 kts 344°
2026-05-07 22:03 29.39417 -82.68988 27619 ft 419 kts 344°
2026-05-07 22:04 29.42329 -82.69313 27752 ft 426 kts 349°
2026-05-07 22:04 29.45303 -82.69287 27910 ft 429 kts 352°
2026-05-07 22:04 29.48287 -82.69271 28144 ft 428 kts 351°
2026-05-07 22:04 29.51263 -82.69270 28386 ft 427 kts 351°
2026-05-07 22:05 29.54235 -82.69250 28630 ft 427 kts 352°
2026-05-07 22:05 29.57209 -82.69224 28882 ft 427 kts 351°
2026-05-07 22:05 29.60175 -82.69205 29150 ft 426 kts 351°
2026-05-07 22:05 29.63137 -82.69188 29456 ft 425 kts 351°
2026-05-07 22:06 29.66097 -82.69171 29733 ft 425 kts 351°
2026-05-07 22:06 29.69053 -82.69153 30011 ft 425 kts 351°
2026-05-07 22:06 29.72009 -82.69133 30271 ft 424 kts 351°
2026-05-07 22:06 29.74955 -82.69114 30517 ft 423 kts 350°
2026-05-07 22:07 29.77897 -82.69096 30783 ft 422 kts 350°
2026-05-07 22:07 29.80829 -82.69078 31038 ft 422 kts 350°
2026-05-07 22:07 29.83761 -82.69059 31294 ft 421 kts 350°
2026-05-07 22:07 29.86686 -82.69041 31537 ft 420 kts 350°
2026-05-07 22:08 29.89605 -82.69023 31791 ft 419 kts 350°
2026-05-07 22:08 29.92521 -82.69004 32095 ft 418 kts 350°
2026-05-07 22:08 29.95377 -82.68985 32412 ft 415 kts 350°
2026-05-07 22:08 29.98261 -82.68968 32675 ft 414 kts 350°
2026-05-07 22:09 30.01139 -82.68950 32936 ft 413 kts 350°
2026-05-07 22:09 30.04013 -82.68932 33198 ft 412 kts 350°
2026-05-07 22:09 30.06915 -82.68914 33473 ft 411 kts 350°
2026-05-07 22:09 30.09738 -82.68896 33736 ft 411 kts 350°
2026-05-07 22:10 30.12592 -82.68878 33996 ft 410 kts 350°
2026-05-07 22:10 30.15440 -82.68860 34220 ft 409 kts 350°
2026-05-07 22:10 30.18283 -82.68843 34440 ft 409 kts 350°
2026-05-07 22:10 30.21129 -82.68826 34673 ft 409 kts 351°
2026-05-07 22:11 30.23983 -82.68809 34902 ft 410 kts 351°
2026-05-07 22:11 30.26832 -82.68789 35133 ft 409 kts 351°
2026-05-07 22:11 30.29679 -82.68771 35356 ft 409 kts 350°
2026-05-07 22:11 30.32523 -82.68753 35596 ft 408 kts 350°
2026-05-07 22:12 30.35362 -82.68736 35817 ft 408 kts 350°
2026-05-07 22:12 30.38199 -82.68718 36037 ft 407 kts 350°
2026-05-07 22:12 30.41034 -82.68700 36255 ft 407 kts 350°
2026-05-07 22:12 30.43868 -82.68683 36488 ft 407 kts 350°
2026-05-07 22:13 30.46693 -82.68664 36706 ft 406 kts 350°
2026-05-07 22:13 30.49517 -82.68642 36916 ft 407 kts 351°
2026-05-07 22:13 30.52373 -82.68325 37106 ft 418 kts 359°
2026-05-07 22:13 30.55236 -82.67706 37318 ft 419 kts
2026-05-07 22:14 30.58101 -82.67094 37525 ft 418 kts 360°
2026-05-07 22:14 30.60959 -82.66491 37729 ft 418 kts 360°
2026-05-07 22:14 30.63820 -82.65880 37939 ft 418 kts 360°
2026-05-07 22:14 30.66675 -82.65266 38140 ft 417 kts 360°
2026-05-07 22:15 30.69531 -82.64654 38336 ft 417 kts 360°
2026-05-07 22:15 30.72381 -82.64044 38532 ft 417 kts 360°
2026-05-07 22:15 30.75230 -82.63435 38729 ft 416 kts 359°
2026-05-07 22:15 30.78078 -82.62824 38880 ft 416 kts 359°
2026-05-07 22:16 30.80924 -82.62212 39048 ft 415 kts 359°
2026-05-07 22:16 30.83758 -82.61604 39213 ft 414 kts 359°
2026-05-07 22:16 30.86595 -82.60995 39359 ft 414 kts 359°
2026-05-07 22:16 30.89423 -82.60387 39515 ft 413 kts 359°
2026-05-07 22:17 30.92247 -82.59779 39675 ft 413 kts 359°
2026-05-07 22:17 30.95071 -82.59172 39814 ft 412 kts 359°
2026-05-07 22:17 30.97888 -82.58565 39961 ft 412 kts 359°
2026-05-07 22:17 31.00714 -82.57959 39980 ft 415 kts 359°
2026-05-07 22:18 31.09167 -82.56128 39982 ft 409 kts 359°
2026-05-07 22:19 31.14734 -82.54930 39975 ft 406 kts 359°
2026-05-07 22:19 31.20309 -82.53726 39975 ft 409 kts 359°
2026-05-07 22:20 31.25915 -82.52511 39969 ft 411 kts 359°
2026-05-07 22:20 31.31548 -82.51290 39974 ft 413 kts 358°
2026-05-07 22:21 31.37203 -82.50061 39967 ft 413 kts 358°
2026-05-07 22:21 31.42836 -82.48836 39958 ft 411 kts 358°
2026-05-07 22:22 31.48448 -82.47615 39952 ft 410 kts 358°
2026-05-07 22:22 31.54044 -82.46396 39945 ft 408 kts 358°
2026-05-07 22:23 31.59628 -82.45178 39943 ft 408 kts 358°
2026-05-07 22:23 31.65169 -82.43969 39945 ft 410 kts 358°
2026-05-07 22:24 31.70793 -82.42738 39945 ft 412 kts 358°
2026-05-07 22:24 31.76441 -82.41502 39943 ft 413 kts 358°
2026-05-07 22:25 31.82101 -82.40261 39939 ft 415 kts 358°
2026-05-07 22:25 31.87769 -82.39016 39929 ft 414 kts 357°
2026-05-07 22:26 31.93426 -82.37772 39928 ft 413 kts 357°
2026-05-07 22:26 31.99068 -82.36531 39935 ft 412 kts 357°
2026-05-07 22:27 32.04704 -82.35289 39928 ft 412 kts 357°
2026-05-07 22:27 32.10331 -82.34048 39927 ft 411 kts 357°
2026-05-07 22:28 32.15965 -82.32805 39937 ft 413 kts 357°
2026-05-07 22:28 32.21634 -82.31551 39942 ft 415 kts 357°
2026-05-07 22:29 32.27325 -82.30291 39945 ft 417 kts 357°
2026-05-07 22:29 32.33025 -82.29024 39939 ft 416 kts 357°
2026-05-07 22:30 32.38711 -82.27762 39978 ft 415 kts 357°
2026-05-07 22:30 32.44410 -82.26498 39935 ft 417 kts 357°
2026-05-07 22:31 32.50125 -82.25224 39925 ft 418 kts 357°
2026-05-07 22:31 32.55810 -82.23958 39927 ft 419 kts 357°
2026-05-07 22:32 32.61545 -82.22678 39921 ft 420 kts 357°
2026-05-07 22:32 32.67288 -82.21394 39918 ft 421 kts 356°
2026-05-07 22:33 32.73038 -82.20108 39914 ft 420 kts 356°
2026-05-07 22:33 32.78779 -82.18821 39914 ft 420 kts 356°
2026-05-07 22:34 32.84475 -82.17537 39105 ft 416 kts 356°
2026-05-07 22:34 32.87347 -82.16906 38036 ft 423 kts 356°
2026-05-07 22:34 32.90255 -82.16258 36939 ft 428 kts 357°
2026-05-07 22:34 32.93194 -82.15589 35865 ft 433 kts 357°
2026-05-07 22:35 32.96168 -82.14915 34775 ft 436 kts 357°
2026-05-07 22:35 32.99163 -82.14244 33624 ft 441 kts 357°
2026-05-07 22:35 33.02185 -82.13563 32457 ft 441 kts 358°
2026-05-07 22:35 33.05189 -82.12878 31381 ft 438 kts 358°
2026-05-07 22:36 33.08173 -82.12201 30271 ft 434 kts 358°
2026-05-07 22:36 33.11127 -82.11537 28948 ft 431 kts 358°
2026-05-07 22:36 33.14084 -82.10878 27372 ft 435 kts 358°
2026-05-07 22:36 33.17012 -82.10206 26900 ft 415 kts 358°
2026-05-07 22:37 33.18899 -82.09762 26896 ft 406 kts 358°
2026-05-07 22:37 33.21708 -82.09147 26896 ft 415 kts 357°
2026-05-07 22:37 33.24550 -82.08530 26902 ft 426 kts 358°
2026-05-07 22:37 33.27493 -82.07857 26899 ft 435 kts 359°
2026-05-07 22:38 33.30479 -82.07156 26904 ft 439 kts 359°
2026-05-07 22:38 33.33486 -82.06473 26894 ft 440 kts 359°
2026-05-07 22:38 33.36492 -82.05797 26892 ft 438 kts 358°
2026-05-07 22:38 33.39483 -82.05119 26909 ft 437 kts 359°
2026-05-07 22:39 33.42471 -82.04436 26906 ft 436 kts 359°
2026-05-07 22:39 33.45454 -82.03757 26913 ft 437 kts 358°
2026-05-07 22:39 33.48437 -82.03078 26914 ft 436 kts 358°
2026-05-07 22:39 33.51410 -82.02402 26912 ft 435 kts 358°
2026-05-07 22:40 33.54387 -82.01723 26912 ft 435 kts 358°
2026-05-07 22:40 33.57354 -82.01044 26912 ft 434 kts 358°
2026-05-07 22:40 33.60323 -82.00366 26911 ft 434 kts 358°
2026-05-07 22:40 33.63290 -81.99689 26910 ft 434 kts 358°
2026-05-07 22:41 33.66252 -81.99011 26907 ft 434 kts 358°
2026-05-07 22:41 33.69227 -81.98332 26906 ft 437 kts 358°
2026-05-07 22:41 33.72224 -81.97646 26911 ft 438 kts 358°
2026-05-07 22:41 33.75208 -81.96957 26900 ft 436 kts 358°
2026-05-07 22:42 33.78182 -81.96217 26891 ft 442 kts
2026-05-07 22:42 33.81117 -81.94970 26885 ft 450 kts
2026-05-07 22:42 33.84046 -81.93638 26852 ft 450 kts
2026-05-07 22:42 33.86976 -81.92343 26832 ft 448 kts
2026-05-07 22:43 33.89899 -81.91044 26837 ft 448 kts
2026-05-07 22:43 33.92820 -81.89727 26821 ft 449 kts
2026-05-07 22:43 33.95743 -81.88392 26835 ft 450 kts
2026-05-07 22:43 33.98682 -81.86998 26411 ft 460 kts
2026-05-07 22:44 34.01654 -81.85577 25814 ft 452 kts
2026-05-07 22:44 34.04495 -81.84102 25221 ft 442 kts 15°
2026-05-07 22:44 34.07118 -81.82217 24653 ft 433 kts 19°
2026-05-07 22:44 34.09659 -81.80367 24093 ft 423 kts 18°
2026-05-07 22:45 34.12215 -81.78561 23520 ft 432 kts 18°
2026-05-07 22:45 34.14816 -81.76698 22006 ft 439 kts 19°
2026-05-07 22:45 34.17416 -81.74776 20853 ft 434 kts 20°
2026-05-07 22:45 34.19962 -81.72898 19805 ft 425 kts 19°
2026-05-07 22:46 34.22483 -81.71098 18788 ft 417 kts 18°
2026-05-07 22:46 34.24917 -81.69347 18143 ft 400 kts 18°
2026-05-07 22:46 34.27250 -81.67632 17132 ft 394 kts 19°
2026-05-07 22:46 34.29545 -81.65938 16902 ft 365 kts 19°
2026-05-07 22:47 34.31629 -81.64404 16418 ft 345 kts 18°
2026-05-07 22:47 34.33738 -81.62924 14820 ft 367 kts 19°
2026-05-07 22:47 34.35917 -81.61356 14047 ft 358 kts 22°
2026-05-07 22:47 34.37999 -81.59791 13309 ft 346 kts 22°
2026-05-07 22:48 34.40003 -81.58318 12896 ft 325 kts 21°
2026-05-07 22:48 34.41847 -81.56973 12891 ft 295 kts 21°
2026-05-07 22:48 34.43533 -81.55742 12834 ft 271 kts 20°
2026-05-07 22:48 34.45084 -81.54609 12835 ft 251 kts 19°
2026-05-07 22:49 34.46533 -81.53556 12830 ft 237 kts 18°
2026-05-07 22:49 34.47964 -81.52526 12840 ft 246 kts 18°
2026-05-07 22:49 34.49496 -81.51388 12865 ft 273 kts 22°
2026-05-07 22:49 34.51176 -81.50044 12870 ft 306 kts 24°
2026-05-07 22:50 34.52968 -81.48595 12883 ft 303 kts 24°
2026-05-07 22:50 34.54725 -81.47177 11792 ft 311 kts 25°
2026-05-07 22:50 34.56589 -81.45718 10864 ft 319 kts 26°
2026-05-07 22:50 34.58410 -81.44245 10843 ft 317 kts 27°
2026-05-07 22:51 34.60038 -81.42256 10842 ft 348 kts 49°
2026-05-07 22:51 34.61242 -81.39695 10859 ft 346 kts 59°
2026-05-07 22:51 34.62297 -81.37115 10912 ft 337 kts 59°
2026-05-07 22:51 34.63337 -81.34575 10969 ft 337 kts 59°
2026-05-07 22:52 34.64399 -81.32023 10977 ft 339 kts 59°
2026-05-07 22:52 34.65466 -81.29461 10983 ft 341 kts 59°
2026-05-07 22:52 34.66532 -81.26885 10981 ft 342 kts 59°
2026-05-07 22:52 34.67601 -81.24301 10984 ft 342 kts 60°
2026-05-07 22:53 34.68414 -81.21585 10986 ft 340 kts 64°
2026-05-07 22:53 34.69674 -81.19198 10977 ft 334 kts 46°
2026-05-07 22:53 34.71179 -81.17056 10985 ft 333 kts 43°
2026-05-07 22:53 34.72727 -81.14952 10992 ft 334 kts 43°
2026-05-07 22:54 34.74299 -81.12844 10754 ft 342 kts 43°
2026-05-07 22:54 34.75926 -81.10695 10550 ft 347 kts 42°
2026-05-07 22:54 34.77563 -81.08549 10555 ft 345 kts 42°
2026-05-07 22:54 34.79226 -81.06383 10018 ft 360 kts 43°
2026-05-07 22:55 34.80947 -81.04173 9282 ft 353 kts 43°
2026-05-07 22:55 34.82606 -81.02057 8306 ft 343 kts 43°
2026-05-07 22:55 34.84253 -80.99976 7551 ft 331 kts 42°
2026-05-07 22:55 34.85787 -80.98036 7288 ft 306 kts 42°
2026-05-07 22:56 34.87238 -80.96197 6619 ft 300 kts 42°
2026-05-07 22:56 34.88681 -80.94375 5930 ft 296 kts 43°
2026-05-07 22:56 34.90105 -80.92588 5216 ft 292 kts 42°
2026-05-07 22:56 34.91482 -80.90858 4973 ft 272 kts 41°
2026-05-07 22:57 34.92964 -80.89729 4895 ft 236 kts
2026-05-07 22:57 34.94482 -80.89890 4605 ft 214 kts 330°
2026-05-07 22:57 34.95453 -80.91154 4154 ft 206 kts 290°
2026-05-07 22:57 34.95946 -80.92752 3670 ft 203 kts 307°
2026-05-07 22:58 34.97174 -80.93499 3415 ft 202 kts 355°
2026-05-07 22:58 34.98423 -80.92868 3408 ft 198 kts 40°
2026-05-07 22:58 34.98917 -80.91341 3193 ft 204 kts 87°
2026-05-07 22:58 34.98610 -80.89641 2972 ft 203 kts 100°
2026-05-07 22:59 34.98571 -80.88035 2944 ft 180 kts 63°
2026-05-07 22:59 34.99391 -80.87147 2958 ft 150 kts
2026-05-07 22:59 35.00311 -80.87590 2986 ft 154 kts 306°
2026-05-07 22:59 35.00434 -80.88818 2986 ft 158 kts 251°
2026-05-07 23:00 34.99814 -80.89879 2923 ft 148 kts 255°
2026-05-07 23:00 34.99821 -80.91151 2429 ft 160 kts 293°
2026-05-07 23:00 35.00609 -80.92122 1887 ft 169 kts 332°
2026-05-07 23:00 35.01728 -80.92249 1638 ft 159 kts
2026-05-07 23:01 35.02726 -80.92013 1666 ft 133 kts 359°
2026-05-07 23:01 35.03567 -80.92046 1737 ft 114 kts 354°
2026-05-07 23:01 35.04390 -80.92060 1540 ft 128 kts 356°
2026-05-07 23:01 35.05345 -80.92057 1386 ft 160 kts 358°
2026-05-07 23:02 35.06548 -80.92099 1374 ft 166 kts 348°
2026-05-07 23:02 35.07558 -80.92233 1398 ft 129 kts 348°
2026-05-07 23:02 35.08390 -80.92403 1369 ft 117 kts 348°
2026-05-07 23:02 35.09160 -80.92494 1334 ft 104 kts 347°
2026-05-07 23:03 35.09940 -80.92556 1409 ft 127 kts 355°
2026-05-07 23:03 35.10875 -80.92657 1742 ft 142 kts 351°
2026-05-07 23:03 35.11896 -80.92723 2117 ft 154 kts 355°
2026-05-07 23:03 35.13017 -80.92796 2205 ft 166 kts 353°
2026-05-07 23:04 35.14074 -80.92895 1885 ft 137 kts 353°
2026-05-07 23:04 35.14956 -80.92965 1665 ft 118 kts 350°
2026-05-07 23:04 35.15749 -80.93043 1407 ft 113 kts 354°
2026-05-07 23:04 35.16540 -80.93086 1259 ft 119 kts 359°
2026-05-07 23:05 35.17409 -80.93195 1345 ft 132 kts 356°
2026-05-07 23:05 35.18393 -80.93270 1109 ft 154 kts 359°
2026-05-07 23:05 35.19401 -80.93356 904 ft 135 kts 358°
2026-05-07 23:05 35.20241 -80.93430 723 ft 106 kts 359°
2026-05-07 23:06 35.20850 -80.93474 713 ft 67 kts 353°
2026-05-07 23:06 35.21150 -80.93500 714 ft 32 kts 356°
2026-05-07 23:06 35.21318 -80.93515 715 ft 22 kts 357°
2026-05-07 23:06 35.21452 -80.93508 719 ft 19 kts 17°
2026-05-07 23:07 35.21537 -80.93445 720 ft 5 kts 72°
2026-05-07 23:07 35.21536 -80.93416 718 ft 3 kts 98°
2026-05-07 23:07 35.21534 -80.93404 718 ft 0 kts 104°
2026-05-07 23:08 35.21533 -80.93402 718 ft 1 kts 117°
2026-05-07 23:08 35.21504 -80.93400 718 ft 8 kts 179°
2026-05-07 23:09 35.21420 -80.93393 716 ft 16 kts 178°
2026-05-07 23:09 35.21308 -80.93384 716 ft 16 kts 177°
2026-05-07 23:09 35.21196 -80.93373 718 ft 16 kts 176°
2026-05-07 23:09 35.21084 -80.93362 713 ft 16 kts 182°
2026-05-07 23:10 35.20976 -80.93354 712 ft 16 kts 176°
2026-05-07 23:10 35.20868 -80.93345 713 ft 15 kts 176°
2026-05-07 23:10 35.20792 -80.93293 713 ft 13 kts 85°